GW7398 Weather Reports


Display with metric or nautical units.
time (UTC)temp
F
wind
direction
speed
MPH
gust
MPH
rain 1hr
in
rain 24hr
in
rain mn
in
humidity
%
barometer
mb
20260507064017 57 338 1.0 2.0 0.00 0.00 0.00 74 1019.8
20260507063039 57 126 1.0 5.0 0.00 0.00 0.00 75 1019.8
20260507062020 57 86 2.0 5.0 0.00 0.00 0.00 75 1019.8
20260507061042 57 108 1.0 3.0 0.00 0.00 0.00 74 1019.8
20260507060023 57 96 0.0 2.0 0.00 0.00 0.00 74 1019.8
20260507055045 57 290 1.0 3.0 0.00 0.00 0.00 74 1019.8
20260507054016 57 247 0.0 3.0 0.00 0.00 0.00 74 1019.8
20260507053558 57 131 2.0 4.0 0.00 0.00 0.00 74 1019.8
20260507053023 57 91 2.0 5.0 0.00 0.00 0.00 74 1019.8
20260507052021 57 28 1.0 3.0 0.00 0.00 0.00 74 1019.8
20260507051022 57 290 1.0 3.0 0.00 0.00 0.00 74 1019.8
20260507050519 57 282 0.0 3.0 0.00 0.00 0.00 73 1019.5
20260507050038 57 114 1.0 6.0 0.00 0.00 0.00 73 1019.7
20260507045020 57 282 2.0 3.0 0.00 0.00 0.00 73 1019.8
20260507044021 57 307 1.0 4.0 0.00 0.00 0.00 72 1019.8
20260507043022 57 49 0.0 2.0 0.00 0.00 0.00 72 1019.8
20260507042024 57 288 1.0 3.0 0.00 0.00 0.00 72 1019.7
20260507041025 57 271 1.0 4.0 0.00 0.00 0.00 71 1019.5
20260507040016 58 147 2.0 4.0 0.00 0.00 0.00 71 1019.4
20260507035525 58 123 1.0 4.0 0.00 0.00 0.00 70 1019.7
20260507034536 58 69 1.0 3.0 0.00 0.00 0.00 70 1019.6
20260507033522 58 281 1.0 3.0 0.00 0.00 0.00 69 1019.8
20260507032538 58 282 1.0 2.0 0.00 0.00 0.00 69 1019.6
20260507031516 58 297 1.0 4.0 0.00 0.00 0.00 68 1019.6
20260507030517 58 136 1.0 4.0 0.00 0.00 0.00 68 1019.7
20260507025519 58 285 1.0 4.0 0.00 0.00 0.00 68 1019.7
20260507024520 58 92 2.0 5.0 0.00 0.00 0.00 68 1019.7
20260507023541 59 252 1.0 4.0 0.00 0.00 0.00 67 1019.7
20260507022522 59 54 1.0 4.0 0.00 0.00 0.00 68 1019.5
20260507021643 59 333 1.0 4.0 0.00 0.00 0.00 67 1019.7
20260507020525 59 270 2.0 4.0 0.00 0.00 0.00 67 1019.5
20260507015515 60 278 1.0 4.0 0.00 0.00 0.00 66 1019.5
20260507014516 60 297 2.0 4.0 0.00 0.00 0.00 65 1019.3
20260507013518 60 273 2.0 4.0 0.00 0.00 0.00 66 1019.4